Flag for Germany Weather past 2 weeks in Saalfeld/Saale, Thuringia, Germany

Now
57 °F

Sunny.


Feels Like: 57 °F
Forecast: 48 / 67 °F
Wind: 3 mph from Southwest

Location: Erfurt-Bindersleben

Current Time: May 23, 2015 at 10:22:12 AM

Latest Report: May 23, 2015 at 9:50 AM


Visibility: 10 mi

Pressure: 30.12 "Hg

Humidity: 67%

Dew point: 46 °F

Location of Saalfeld/SaaleLocation

Historic Weather in Saalfeld/Saale — Graph

°F

Saalfeld/Saale temperature yesterday

Maximum temperature yesterday: 64 °F (at 2:50 PM)
Minimum temperature yesterday: 36 °F (at 2:20 AM)
Average temperature yesterday: 53 °F

Past Weeks' High & Low Weather Summary

 TemperatureHumidityPressure
High81 °F (May 12, 2:50 PM)100% (May 21, 6:20 AM)30.36 "Hg (May 21, 6:20 AM)
Low36 °F (May 22, 2:20 AM)27% (May 19, 2:50 PM)29.65 "Hg (May 19, 1:20 AM)
Average55 °F60%30.06 "Hg
* Reported May 8 9:20 AM — May 23 9:20 AM, Saalfeld/Saale, Weather by CustomWeather, © 2015

Note: Actual official high and low records may vary slightly from our data, if they occured in-between our weather recording intervals... More about our weather records

Advertising

Saalfeld/Saale weather history for previous 24 hours

 ConditionsComfort  
Time TempWeatherWind HumidityBarometerVisibility
9:20 AM
Sat, May 23
55 °FSunny.2 mph67%30.15 "Hg10 mi
8:50 AM54 °FSunny.3 mph77%30.12 "Hg10 mi
8:20 AM54 °FSunny.3 mph72%30.12 "Hg10 mi
7:50 AM52 °FSunny.3 mph77%30.12 "Hg10 mi
7:20 AM52 °FSunny.3 mph77%30.12 "Hg10 mi
6:50 AM52 °FSunny.3 mph77%30.12 "Hg10 mi
6:20 AM52 °FSunny.2 mph77%30.12 "Hg10 mi
5:50 AM52 °FClear.1 mph72%30.12 "Hg10 mi
5:20 AM50 °FClear.2 mph76%30.12 "Hg10 mi
4:50 AM50 °FClear.3 mph76%30.15 "Hg10 mi
4:20 AM52 °FClear.5 mph72%30.15 "Hg10 mi
3:50 AM50 °FClear.3 mph76%30.15 "Hg10 mi
3:20 AM52 °FClear.3 mph72%30.15 "Hg10 mi
2:50 AM52 °FClear.5 mph67%30.15 "Hg10 mi
2:20 AM54 °FClear.5 mph63%30.15 "Hg10 mi
1:50 AM54 °FClear.3 mph58%30.18 "Hg10 mi
1:20 AM54 °FClear.3 mph58%30.18 "Hg10 mi
12:50 AM55 °FClear.3 mph55%30.18 "Hg10 mi
12:20 AM55 °FClear.3 mph55%30.18 "Hg10 mi
11:50 PM
Fri, May 22
55 °FClear.3 mph55%30.18 "Hg10 mi
11:20 PM57 °FClear.2 mph51%30.18 "Hg10 mi
10:50 PM57 °FClear.2 mph51%30.18 "Hg10 mi
10:20 PM57 °FClear.5 mph51%30.18 "Hg10 mi
9:50 PM59 °FSunny.5 mph45%30.18 "Hg10 mi
9:20 PM59 °FSunny.2 mph45%30.18 "Hg10 mi
8:50 PM61 °FSunny.2 mph42%30.18 "Hg10 mi
8:20 PM61 °FSunny.3 mph45%30.18 "Hg10 mi
7:50 PM63 °FSunny.3 mph39%30.18 "Hg10 mi
7:20 PM63 °FSunny.5 mph37%30.18 "Hg10 mi
6:50 PM63 °FSunny.6 mph39%30.18 "Hg10 mi
6:20 PM64 °FSunny.6 mph40%30.18 "Hg10 mi
5:50 PM63 °FSunny.3 mph39%30.21 "Hg10 mi
5:20 PM63 °FSunny.6 mph39%30.21 "Hg10 mi
4:50 PM64 °FSunny.6 mph34%30.21 "Hg10 mi
4:20 PM64 °FSunny.6 mph32%30.24 "Hg10 mi
3:50 PM64 °FPassing clouds.5 mph37%30.24 "HgN/A
3:20 PM64 °FPassing clouds.5 mph34%30.24 "HgN/A
2:50 PM64 °FSunny.2 mph32%30.24 "Hg10 mi
2:20 PM63 °FPassing clouds.5 mph37%30.27 "HgN/A
1:50 PM63 °FPassing clouds.5 mph39%30.27 "HgN/A
1:20 PM63 °FPassing clouds.5 mph37%30.27 "HgN/A
12:50 PM59 °FPassing clouds.5 mph39%30.30 "HgN/A
12:20 PM59 °FSunny.3 mph42%30.30 "Hg10 mi
11:50 AM61 °FPassing clouds.5 mph39%30.30 "HgN/A
11:20 AM59 °FPassing clouds.2 mph39%30.30 "HgN/A
10:50 AM59 °FPassing clouds.2 mph45%30.30 "HgN/A
10:20 AM57 °FPassing clouds.2 mph44%30.33 "HgN/A
Weather by CustomWeather, © 2015

See weather overviewHow to use our weather pages